Flag for Philippines Weather past 2 weeks in Olongapo, Philippines

Now
90 °F

Broken clouds.


Feels Like: 100 °F
Forecast: 77 / 91 °F
Wind: 7 mph from Southwest

Location: Subic Bay Weather Station

Current Time: Oct 21, 2014 at 3:43:41 PM

Latest Report: Oct 21, 2014 at 3:00 PM


Visibility: N/A

Pressure: 29.80 "Hg

Humidity: 63%

Dew point: 75 °F

Location of OlongapoLocation

Historic Weather in Olongapo — Graph

°F

Olongapo temperature yesterday

Maximum temperature yesterday: 90 °F (at 1:00 PM)
Minimum temperature yesterday: 77 °F (at 12:00 AM)
Average temperature yesterday: 81 °F

Past Weeks' High & Low Weather Summary

 TemperatureHumidityPressure
High90 °F (Oct 6, 2:00 PM)94% (Oct 9, 3:00 AM)29.92 "Hg (Oct 9, 3:00 AM)
Low75 °F (Oct 8, 5:00 AM)52% (Oct 16, 12:00 PM)29.59 "Hg (Oct 9, 3:00 PM)
Average81 °F77%29.78 "Hg
* Reported Oct 6 2:00 PM — Oct 21 2:00 PM, Olongapo, Weather by CustomWeather, © 2014

Note: Actual official high and low records may vary slightly from our data, if they occured in-between our weather recording intervals... More about our weather records

Advertising

Olongapo weather history for previous 24 hours

 ConditionsComfort  
Time TempWeatherWind HumidityBarometerVisibility
2:00 PM
Oct 21
90 °FBroken clouds.9 mph59%29.83 "HgN/A
1:00 PM90 °FPartly sunny.9 mph59%29.86 "HgN/A
12:00 PM90 °FBroken clouds.13 mph63%29.89 "HgN/A
11:00 AM88 °FBroken clouds.9 mph62%29.92 "HgN/A
10:00 AM86 °FPassing clouds.12 mph66%29.92 "HgN/A
9:00 AM84 °FPassing clouds.9 mph70%29.92 "HgN/A
8:00 AM82 °FPassing clouds.8 mph74%29.92 "HgN/A
7:00 AM79 °FPassing clouds.3 mph89%29.89 "HgN/A
6:00 AM77 °FScattered clouds.3 mph89%29.89 "HgN/A
5:00 AM77 °FPartly cloudy.1 mph89%29.86 "HgN/A
2:00 AM79 °FPartly cloudy.5 mph89%29.83 "HgN/A
1:00 AM79 °FPartly cloudy.No wind89%29.86 "HgN/A
12:00 AM79 °FPartly cloudy.No wind89%29.89 "HgN/A
11:00 PM
Oct 20
79 °FMostly cloudy.No wind89%29.89 "HgN/A
10:00 PM79 °FMostly cloudy.No wind89%29.89 "HgN/A
9:00 PM79 °FMostly cloudy.No wind89%29.89 "HgN/A
8:00 PM79 °FMostly cloudy.No wind89%29.86 "HgN/A
7:00 PM77 °FMostly cloudy.1 mph94%29.83 "HgN/A
5:00 PM84 °FCloudy.16 mph74%29.80 "Hg2 mi
4:00 PM88 °FBroken clouds.No wind62%29.77 "HgN/A
3:00 PM88 °FBroken clouds.12 mph70%29.77 "HgN/A
Weather by CustomWeather, © 2014

See weather overviewHow to use our weather pages